Simultaneous Nadir Overpasses (SNOs) Predictions

Prediction of SNOs between AQUA and NPP Satellite Orbit:

Table of predicted SNOs for the next 14.0 days since TLE Epoch: 2/11/2023
Index Date (AQUA) Time (AQUA) Lat,Lon (AQUA) SZA (AQUA ) Date (NPP) Time (NPP) Lat,Lon (NPP) SZA (NPP ) Distance(km) Time Diff (sec)
1 02/13/2023 08:55:21 -79.27, 122.13 73.59 02/13/2023 08:54:08 -79.28, 122.20 73.55 1.57 73
2 02/13/2023 09:44:40 79.50, -68.68 106.07 02/13/2023 09:44:46 79.49, -68.80 106.09 2.65 6
3 02/16/2023 00:20:47 79.46, 72.03 105.25 02/16/2023 00:20:12 79.46, 72.10 105.27 1.50 35
4 02/16/2023 01:10:07 -79.67,-118.78 75.08 02/16/2023 01:10:51 -79.67,-118.77 75.12 0.17 44
5 02/18/2023 14:56:56 79.22,-148.55 104.69 02/18/2023 14:55:43 79.21,-148.65 104.76 2.12 73
6 02/18/2023 15:46:11 -79.63, 21.92 75.93 02/18/2023 15:46:16 -79.63, 22.06 75.96 2.84 5
7 02/21/2023 06:22:19 -79.40, 161.29 76.52 02/21/2023 06:21:48 -79.39, 161.19 76.48 2.26 31
8 02/21/2023 07:11:35 79.72, -28.73 102.99 02/21/2023 07:12:22 79.72, -28.68 102.95 0.95 47
9 02/23/2023 20:58:22 -79.27, -58.52 77.30 02/23/2023 20:57:16 -79.27, -58.63 77.22 2.41 66



Historial Predications of SNOs between AQUA and NPP
